Weather History for New Philadelphia, OH

Change the Weather History Date:

Wednesday, February 13, 2013

  Actual Average Record
Temperature  
Mean Temperature 30 °F 31 °F  
Max Temperature 36 °F 40 °F 70 °F (1984)
Min Temperature 24 °F 22 °F -5 °F (1979)
Degree Days  
Heating Degree Days 35 34  
Month to date heating degree days 474 450  
Since 1 July heating degree days 3619 3722  
Cooling Degree Days 0 0  
Month to date cooling degree days 0 0  
Year to date cooling degree days 0 0  
Moisture  
Dew Point 24 °F    
Average Humidity 79    
Maximum Humidity 88    
Minimum Humidity 69    
Precipitation  
Precipitation T in 0.09 in 0.94 in (2000)
Month to date precipitation 0.34 1.08  
Year to date precipitation 1.84 3.68  
Sea Level Pressure  
Sea Level Pressure 29.83 in    
Wind  
Wind Speed 2 mph (NNW)    
Max Wind Speed 9 mph    
Max Gust Speed 13 mph    
Visibility 7 miles    
Events      
T = Trace of Precipitation, MM = Missing Value Source: NWS Daily Summary

Daily Weather History Graph

Daily Weather History Graph

Search for Another Location

Airport:

Trip Planner

Search our weather history database for the weather conditions in past years. The results will help you decide how hot, cold, wet, or windy it might be!

Date:

Astronomy

Feb. 13, 2013 Rise Set
Actual Time 7:21 AM EST 5:58 PM EST
Civil Twilight 6:53 AM EST 6:26 PM EST
Nautical Twilight 6:21 AM EST 6:58 PM EST
Astronomical Twilight 5:49 AM EST 7:30 PM EST
Moon 8:49 AM EST (2/13) 10:01 PM EST (2/13)
Length of Visible Light 11h 33m
Length of Day
10h 37m
Waxing Crescent, 13% of the Moon is Illuminated
Feb 13
Waxing Crescent
Feb 17
First Quarter
Feb 25
Full
Mar 4
Last Quarter
Mar 11
New

Hourly Weather History & Observations

Time (EST) Temp. Windchill Dew Point Humidity Pressure Visibility Wind Dir Wind Speed Gust Speed Precip Events Conditions
12:53 AM 27.0 °F - 21.9 °F 81% 29.93 in 10.0 mi Calm Calm - N/A   Clear
1:53 AM 26.1 °F - 21.0 °F 81% 29.92 in 9.0 mi Calm Calm - N/A   Clear
2:53 AM 25.0 °F - 21.0 °F 85% 29.91 in 9.0 mi Calm Calm - N/A   Clear
3:53 AM 25.0 °F - 19.9 °F 81% 29.89 in 7.0 mi Calm Calm - N/A   Clear
4:53 AM 26.1 °F - 21.9 °F 84% 29.89 in 6.0 mi Calm Calm - N/A   Clear
5:53 AM 25.0 °F - 21.0 °F 85% 29.87 in 7.0 mi Calm Calm - N/A   Clear
6:53 AM 26.1 °F - 23.0 °F 88% 29.86 in 7.0 mi Calm Calm - N/A   Clear
7:53 AM 28.0 °F - 24.1 °F 85% 29.83 in 5.0 mi Calm Calm - N/A   Clear
8:53 AM 32.0 °F 25.6 °F 24.1 °F 73% 29.80 in 8.0 mi NE 6.9 mph - N/A   Overcast
9:53 AM 33.1 °F 28.7 °F 24.1 °F 70% 29.82 in 9.0 mi NNE 4.6 mph - N/A   Mostly Cloudy
10:53 AM 34.0 °F 31.0 °F 25.0 °F 70% 29.83 in 9.0 mi Variable 3.5 mph - N/A   Mostly Cloudy
11:53 AM 35.1 °F 29.3 °F 26.1 °F 70% 29.81 in 7.0 mi North 6.9 mph - N/A   Mostly Cloudy
12:53 PM 35.1 °F 31.0 °F 26.1 °F 70% 29.78 in 7.0 mi North 4.6 mph - N/A   Overcast
1:53 PM 35.1 °F 32.2 °F 26.1 °F 70% 29.75 in 7.0 mi NNW 3.5 mph - N/A   Overcast
2:53 PM 35.1 °F - 26.1 °F 70% 29.74 in 8.0 mi Calm Calm - N/A   Overcast
3:08 PM 35.6 °F 31.7 °F 26.6 °F 70% 29.72 in 8.0 mi NW 4.6 mph - N/A   Overcast
3:53 PM 35.1 °F 29.3 °F 26.1 °F 70% 29.76 in 7.0 mi NNW 6.9 mph - N/A   Overcast
4:53 PM 34.0 °F 28.0 °F 26.1 °F 73% 29.77 in 6.0 mi NW 6.9 mph - 0.00 in   Haze
5:53 PM 34.0 °F 28.8 °F 25.0 °F 70% 29.78 in 5.0 mi WNW 5.8 mph - N/A   Haze
6:53 PM 33.1 °F 27.7 °F 25.0 °F 72% 29.81 in 7.0 mi NW 5.8 mph - N/A   Mostly Cloudy
7:05 PM 33.8 °F - 24.8 °F 70% 29.78 in 8.0 mi Calm Calm - N/A   Scattered Clouds
7:53 PM 30.9 °F - 24.1 °F 76% 29.84 in 6.0 mi Calm Calm - N/A   Haze
8:53 PM 30.0 °F - 23.0 °F 75% 29.86 in 7.0 mi Calm Calm - N/A   Clear
9:53 PM 27.0 °F - 21.9 °F 81% 29.87 in 6.0 mi Calm Calm - N/A   Haze
10:53 PM 26.1 °F - 21.9 °F 84% 29.89 in 5.0 mi Calm Calm - N/A   Clear
11:53 PM 24.1 °F - 21.0 °F 88% 29.91 in 5.0 mi Calm Calm - N/A   Clear